Regional Weather Roundup
Issued by NWS Upton, NY

Home | Current Version | Previous Version | Text Only | Print | Product List | Glossary On
Versions: 1 2 3 4 5 6 7 8 9 10 11 12 13 14 15 16 17 18 19 20 21 22 23 24 25 26 27 28 29 30 31 32 33 34 35 36 37 38 39 40 41 42 43 44 45 46 47
000
ASUS41 KOKX 251305
RWROKX

REGIONAL WEATHER ROUNDUP
NATIONAL WEATHER SERVICE NEW YORK NY
800 AM EST THU DEC 25 2014

NOTE: "FAIR" INDICATES FEW OR NO CLOUDS BELOW 12,000 FEET WITH NO
SIGNIFICANT WEATHER AND/OR OBSTRUCTIONS TO VISIBILITY.

NYZ071-072-176-178-NJZ106-104-251400-
NEW YORK CITY METRO AREA


CITY           SKY/WX    TMP DP  RH WIND       PRES   REMARKS
CENTRAL PARK   CLOUDY    51  40  65 W12G18    29.67R
LAGUARDIA APRT LGT RAIN  51  40  65 W16G23    29.65R
KENNEDY INTL   CLOUDY    51  44  77 W15       29.67R
NEWARK/LIBERTY CLOUDY    49  41  74 W15G25    29.65R
BRNX BOT. GARD   N/A     50  39  66 W23       29.67R
TETERBORO      CLOUDY    50  29  44 W12       29.63R
$$

NYZ177-179-078>081-251400-
LONG ISLAND NEW YORK

CITY           SKY/WX    TMP DP  RH WIND       PRES   REMARKS
FARMINGDALE    LGT RAIN  50  44  80 W9        29.63R
ISLIP          LGT RAIN  52  46  80 W15G24    29.59R
SHIRLEY        LGT RAIN  53  51  93 W15G22    29.63R
WESTHAMPTON    LGT RAIN  52  50  93 SW9       29.61R FOG
MONTAUK POINT    N/A     55  53  93 SW8       29.61S
$$

NYZ052-065-067-251400-
HUDSON VALLEY

CITY           SKY/WX    TMP DP  RH WIND       PRES   REMARKS
WHITE PLAINS   CLOUDY    49  40  71 W20G28    29.63R
NEWBURGH       NOT AVBL
MONTGOMERY     CLOUDY    47  38  71 W10G17    29.61R
POUGHKEEPSIE   CLOUDY    50  40  68 SW12      29.61R
ALBANY         CLOUDY    49  38  65 W12       29.58R
$$

NJZ001-105-106-008-010-013-015-019>022-104-251400-
NEW JERSEY

CITY           SKY/WX    TMP DP  RH WIND       PRES   REMARKS
NEWARK/LIBERTY CLOUDY    49  41  74 W15G25    29.65R
TETERBORO      CLOUDY    50  29  44 W12       29.63R
CALDWELL       CLOUDY    49  39  68 W7        29.66R
MORRISTOWN     CLOUDY    52  43  71 W10G22    29.67R
SOMERVILLE     CLOUDY    49  37  63 VRB7G20   29.67R
SUSSEX         CLOUDY    46  38  73 SW6       29.65R
ANDOVER        NOT AVBL
TRENTON        CLOUDY    48  38  68 W9        29.71R
MILLVILLE      LGT RAIN  50  42  74 W14       29.74R
ATLANTIC CITY  CLOUDY    51  48  89 NW13      29.71R
WRIGHTSTOWN    CLOUDY    49  44  81 NW12      29.70R
TOMS RIVER     CLOUDY    50  46  87 NW13      29.70R
BELMAR         CLOUDY    48  43  81 W9        29.69R
$$

PAZ047>061-062-071-251400-
EASTERN PENNSYLVANIA

CITY           SKY/WX    TMP DP  RH WIND       PRES   REMARKS
PHILADELPHIA   CLOUDY    50  40  68 W10       29.74R
ALLENTOWN      CLOUDY    46  37  71 W14       29.71R
SCRANTON       MOCLDY    43  33  68 W14G28    29.67R
$$

CTZ002-004>006-009-010-012-RIZ004-006-007-MAZ004-011-015-251400-
SOUTHERN NEW ENGLAND
 IN CT

CITY           SKY/WX    TMP DP  RH WIND       PRES   REMARKS
BRADLEY INTL   CLOUDY    52  44  74 SW10      29.54S
HARTFORD       CLOUDY    52  45  77 SW10G21   29.56R
DANBURY        CLOUDY    48  39  71 W7        29.61R
WTRBRY/OXFORD  LGT RAIN  48  43  81 W7        29.57S
BRIDGEPORT     CLOUDY    51  45  79 W8        29.61R
MERIDEN        LGT RAIN  52  45  77 W9        29.59R
NEW HAVEN      LGT RAIN  53  44  71 VRB6G17   29.59R
CHESTER        LGT RAIN  52  52 100 W7        29.57S
GROTON         LGT RAIN  52  52 100 SW9       29.56R FOG
WILLIMANTIC    LGT RAIN  57  52  83 W8G22     29.54R

 IN RI

CITY           SKY/WX    TMP DP  RH WIND       PRES   REMARKS
PROVIDENCE     LGT RAIN  58  56  93 SW9       29.54R
BLOCK ISLAND   CLOUDY    54  50  87 SW18      29.59S
WESTERLY       LGT RAIN  53  52  96 SW8       29.57S FOG

 IN MA

CITY           SKY/WX    TMP DP  RH WIND       PRES   REMARKS
BOSTON         LGT RAIN  56  56 100 S10       29.48F
WORCESTER      LGT RAIN  54  51  90 W22G32    29.50S
WESTFIELD      CLOUDY    51  44  77 S7        29.53R
PROVINCETOWN   CLOUDY    55  52  88 SW17      29.57R
NANTUCKET      LGT RAIN  55  54  96 SW20      29.61R FOG
$$

ANZ330-335-338-340-345-350-353-355-251400-
COASTAL MARINE OBSERVATIONS


STATION/POSITION TIME  SKY/WX   TEMP    WIND        PRES    VSBY  WAVE
                                AIR SEA DIR/SP/G                  HT/PER
                 (UTC)          (F)     (DEG/KT/KT) (MB)    (MI)  (FT/S)
NY HARB ENTRANCE 1300            49 47  280/ 16/ 19 1004.5          6/ 8
4S FIRE IS       1300               47                N/A           7/ 8
20S FIRE ISLAND  1200            52 50              1003.4          7/ 8
23SW MTP         1300                                 N/A           8/ 8
HUDSON CANYON    1300            55 56  250/  8/ 10 1004.3
EXECUTION ROCKS  1300            49 42  250/ 12/ 16   N/A
WESTERN LI SOUND 1300            49     260/ 10/ 12   N/A           1/ 2
CENTRAL LI SOUND 1200            49 44  240/ 14/ 27   N/A           2/ 3
EASTERN LI SOUND NOT AVBL
ROBBINS REEF     1300            50                 1002.8
$$


>>>>>>>>>>>>>>>>>>>>>>>>>>>> KEY <<<<<<<<<<<<<<<<<<<<<<<<<<<
>                                                          <
>     SKY/WX - SKY CONDITION/PRESENT WEATHER               <
>     TMP    - TEMPERATURE IN FAHRENHEIT                   <
>     DP     - DEWPOINT IN FAHRENHEIT                      <
>     RH     - RELATIVE HUMIDITY IN PERCENT                <
>     WIND   - DIRECTION AND SPEED IN MPH                  <
>     PRES   - MEAN SEA LEVEL PRESSURE IN INCHES OF HG     <
>     WCI    - WIND CHILL INDEX                            <
>     VSB    - VISIBILITY IN MILES                         <
>     HX     - HEAT INDEX                                  <
>     TC     - TEMPERATURE IN CELSIUS                      <
>     VRB    - VARIABLE WIND DIRECTION                     <
>                                                          <
>>>>>>>>>>>>>>>>>>>>>>>>>>>> KEY <<<<<<<<<<<<<<<<<<<<<<<<<<<




USA.gov is the U.S. government's official web portal to all federal, state and local government web resources and services.